UACCLBBG

Guest
Details From UACC - Astana Intl
To LBBG - Burgas
Flight Number -
Tags Generated
Created
Modified
Stats Distance 1,847 nm / 3,421 km
Max Altitude 0 ft / 0 m
Waypoints 5
Social Downloads 0
Likes 0
Share VATSIM

Download

Looking for another format? Having issues loading an existing format? Contact us
Advertisement - Login to hide

Notes

Generated

Route

UACC ORTES BOMKI BGS95 LBBG

ID Type Via Altitude Latitude Longitude Leg Dist Tot Dist Heading (true) Name
O UACC APT - 0 ft / 0 m 51.01097˚ 71.44957˚ - 0 nm - -
ORTES FIX - 0 ft / 0 m 47.67833˚ 42.02500˚ 1160 nm 1160 nm 272° / 249° -
BOMKI FIX - 0 ft / 0 m 44.53470˚ 32.02843˚ 456 nm 1617 nm 249° / 242° -
BGS95 FIX - 0 ft / 0 m 42.64390˚ 27.68460˚ 220 nm 1837 nm 241° / 238° -
O LBBG APT - 0 ft / 0 m 42.55983˚ 27.50160˚ 9 nm 1847 nm 238° / 238° -

Altitude Profile

Advertisement - Login to hide

Weather


0- 5 10 15 20 25 30 35+ Temperature / ° C

Clouds and Precipitation
Forecast for 2018-05-20 12:00 UTC. Updated an hour ago

Ground ~20,000 ft ~40,000 ft Winds

UACC

Details ICAO UACC (TSE)
Name Astana INTL
Region Kazakhstan and Kyrgyzstan
Timezone Asia/Almaty (UTC+6.0)
Stats Elevation 1,165 ft / 355 m (AMSL)
Location 51.022180° 71.467062°
Runways 1
Magnetic Variation 9.865° E

METAR

UACC 201200Z 24005MPS 9999 SCT046 BKN110 22/M03 Q1023 R22/0///70 NOSIG RMK QFE736/0981

Decode

TAF

TAF UACC 201100Z 2012/2112 24007MPS 9999 SCT030 BKN100 TX27/2009Z TN10/2023Z TEMPO 2012/2016 23007G12MPS TEMPO 2102/2112 26008G13MPS BKN030CB

Decode

Departure Runways

ID Width Length Bearing (true) Bearing (mag) Surface Threshold Offset Overrun Length
04 148 ft / 45 m 11,467 ft / 3,495 m 44.45° 34.59° Asphalt 0 ft / 0 m 0 ft / 0 m
22 148 ft / 45 m 11,467 ft / 3,495 m 224.48° 214.62° Asphalt 0 ft / 0 m 0 ft / 0 m

LBBG

Details ICAO LBBG (BOJ)
Name Burgas
Region Bulgaria
Timezone Europe/Sofia (UTC+3.0)
Stats Elevation 135 ft / 41 m (AMSL)
Location 42.570130° 27.515240°
Runways 1
Magnetic Variation 5.547° E

METAR

LBBG 201200Z 13010KT 100V160 9999 FEW021 FEW033TCU SCT042 22/16 Q1017 NOSIG

Decode

TAF

TAF TAF LBBG 201100Z 2012/2112 12012KT 9999 SCT020 SCT033 PROB30 TEMPO 2012/2016 5000 SHRA FEW027CB BKN040 BECMG 2019/2021 VRB04KT TEMPO 2101/2105 5000 BR BKN010 BECMG 2108/2110 11014KT PROB40 TEMPO 2110/2112 5000 SHRA FEW030CB BKN040

Decode

Destination Runways

ID Width Length Bearing (true) Bearing (mag) Surface Threshold Offset Overrun Length
04 148 ft / 45 m 10,502 ft / 3,201 m 44.28° 38.73° Concrete 0 ft / 0 m 190 ft / 58 m
22 148 ft / 45 m 10,502 ft / 3,201 m 224.29° 218.74° Concrete 0 ft / 0 m 190 ft / 58 m

Approach Navaids

Runway Type Ident Frequency Range Bearing (true) Bearing (mag) Slope Elevation
22 Localiser IBG 110.30 MHz 18 nm / 33 km 224.26° 218.72° - 135 ft / 41 m (AMSL)
22 Glidescope IBG 110.30 MHz 10 nm / 19 km 224.28° 218.74° 3.00° 135 ft / 41 m (AMSL)